Year,Month,Day,Hour,Minute,Value (Times are PST for temperature in C)
2010,02,20,00,00,-0.30
2010,02,20,00,01,-0.40
2010,02,20,00,02,-0.40
2010,02,20,00,03,-0.40
2010,02,20,00,04,-0.40
2010,02,20,00,05,-0.40
2010,02,20,00,06,-0.50
2010,02,20,00,07,-0.40
2010,02,20,00,08,-0.40
2010,02,20,00,09,-0.40
2010,02,20,00,10,-0.40
2010,02,20,00,11,-0.40
2010,02,20,00,12,-0.40
2010,02,20,00,13,-0.40
2010,02,20,00,14,-0.40
2010,02,20,00,15,-0.40
2010,02,20,00,16,-0.40
2010,02,20,00,17,-0.40
2010,02,20,00,18,-0.40
2010,02,20,00,19,-0.40
2010,02,20,00,20,-0.40
2010,02,20,00,21,-0.40
2010,02,20,00,22,-0.40
2010,02,20,00,23,-0.40
2010,02,20,00,24,-0.40
2010,02,20,00,25,-0.40
2010,02,20,00,26,-0.40
2010,02,20,00,27,-0.40
2010,02,20,00,28,-0.40
2010,02,20,00,29,-0.40
2010,02,20,00,30,-0.40
2010,02,20,00,31,-0.40
2010,02,20,00,32,-0.40
2010,02,20,00,33,-0.40
2010,02,20,00,34,-0.40
2010,02,20,00,35,-0.40
2010,02,20,00,36,-0.40
2010,02,20,00,37,-0.40
2010,02,20,00,38,-0.40
2010,02,20,00,39,-0.40
2010,02,20,00,40,-0.50
2010,02,20,00,41,-0.50
2010,02,20,00,42,-0.50
2010,02,20,00,43,-0.50
2010,02,20,00,44,-0.60
2010,02,20,00,45,-0.50
2010,02,20,00,46,-0.60
2010,02,20,00,47,-0.60
2010,02,20,00,48,-0.60
2010,02,20,00,49,-0.60
2010,02,20,00,50,-0.60
2010,02,20,00,51,-0.60
2010,02,20,00,52,-0.60
2010,02,20,00,53,-0.70
2010,02,20,00,54,-0.70
2010,02,20,00,55,-0.70
2010,02,20,00,56,-0.70
2010,02,20,00,57,-0.70
2010,02,20,00,58,-0.70
2010,02,20,00,59,-0.70
2010,02,20,01,00,-0.70
2010,02,20,01,01,-0.70
2010,02,20,01,02,-0.70
2010,02,20,01,03,-0.70
2010,02,20,01,04,-0.70
2010,02,20,01,05,-0.70
2010,02,20,01,06,-0.70
2010,02,20,01,07,-0.70
2010,02,20,01,08,-0.70
2010,02,20,01,09,-0.70
2010,02,20,01,10,-0.70
2010,02,20,01,11,-0.70
2010,02,20,01,12,-0.70
2010,02,20,01,13,-0.70
2010,02,20,01,14,-0.70
2010,02,20,01,15,-0.70
2010,02,20,01,16,-0.70
2010,02,20,01,17,-0.70
2010,02,20,01,18,-0.70
2010,02,20,01,19,-0.80
2010,02,20,01,20,-0.80
2010,02,20,01,21,-0.80
2010,02,20,01,22,-0.80
2010,02,20,01,23,-0.80
2010,02,20,01,24,-0.80
2010,02,20,01,25,-0.80
2010,02,20,01,26,-0.80
2010,02,20,01,27,-0.80
2010,02,20,01,28,-0.80
2010,02,20,01,29,-0.80
2010,02,20,01,30,-0.80
2010,02,20,01,31,-0.80
2010,02,20,01,32,-0.80
2010,02,20,01,33,-0.80
2010,02,20,01,34,-0.80
2010,02,20,01,35,-0.80
2010,02,20,01,36,-0.80
2010,02,20,01,37,-0.80
2010,02,20,01,38,-0.80
2010,02,20,01,39,-0.80
2010,02,20,01,40,-0.80
2010,02,20,01,41,-0.80
2010,02,20,01,42,-0.80
2010,02,20,01,43,-0.80
2010,02,20,01,44,-0.80
2010,02,20,01,45,-0.80
2010,02,20,01,46,-0.80
2010,02,20,01,47,-0.80
2010,02,20,01,48,-0.80
2010,02,20,01,49,-0.80
2010,02,20,01,50,-0.80
2010,02,20,01,51,-0.80
2010,02,20,01,52,-0.80
2010,02,20,01,53,-0.90
2010,02,20,01,54,-0.90
2010,02,20,01,55,-0.90
2010,02,20,01,56,-0.90
2010,02,20,01,57,-0.90
2010,02,20,01,58,-1.00
2010,02,20,01,59,-1.00
2010,02,20,02,00,-1.00
2010,02,20,02,01,-1.00
2010,02,20,02,02,-1.00
2010,02,20,02,03,-1.00
2010,02,20,02,04,-1.00
2010,02,20,02,05,-1.00
2010,02,20,02,06,-1.00
2010,02,20,02,07,-1.00
2010,02,20,02,08,-1.00
2010,02,20,02,09,-1.00
2010,02,20,02,10,-1.00
2010,02,20,02,11,-1.00
2010,02,20,02,12,-1.00
2010,02,20,02,13,-1.00
2010,02,20,02,14,-1.00
2010,02,20,02,15,-0.90
2010,02,20,02,16,-0.90
2010,02,20,02,17,-0.90
2010,02,20,02,18,-0.90
2010,02,20,02,19,-0.90
2010,02,20,02,20,-0.90
2010,02,20,02,21,-0.90
2010,02,20,02,22,-0.90
2010,02,20,02,23,-0.90
2010,02,20,02,24,-1.00
2010,02,20,02,25,-1.00
2010,02,20,02,26,-1.00
2010,02,20,02,27,-1.00
2010,02,20,02,28,-1.00
2010,02,20,02,29,-1.00
2010,02,20,02,30,-1.00
2010,02,20,02,31,-1.00
2010,02,20,02,32,-1.10
2010,02,20,02,33,-1.10
2010,02,20,02,34,-1.10
2010,02,20,02,35,-1.10
2010,02,20,02,36,-1.10
2010,02,20,02,37,-1.10
2010,02,20,02,38,-1.10
2010,02,20,02,39,-1.10
2010,02,20,02,40,-1.10
2010,02,20,02,41,-1.10
2010,02,20,02,42,-1.10
2010,02,20,02,43,-1.10
2010,02,20,02,44,-1.10
2010,02,20,02,45,-1.10
2010,02,20,02,46,-1.10
2010,02,20,02,47,-1.10
2010,02,20,02,48,-1.10
2010,02,20,02,49,-1.10
2010,02,20,02,50,-1.10
2010,02,20,02,51,-1.10
2010,02,20,02,52,-1.10
2010,02,20,02,53,-1.10
2010,02,20,02,54,-1.10
2010,02,20,02,55,-1.10
2010,02,20,02,56,-1.10
2010,02,20,02,57,-1.10
2010,02,20,02,58,-1.10
2010,02,20,02,59,-1.10
2010,02,20,03,00,-1.10
2010,02,20,03,01,-1.10
2010,02,20,03,02,-1.10
2010,02,20,03,03,-1.10
2010,02,20,03,04,-1.10
2010,02,20,03,05,-1.10
2010,02,20,03,06,-1.10
2010,02,20,03,07,-1.10
2010,02,20,03,08,-1.10
2010,02,20,03,09,-1.10
2010,02,20,03,10,-1.10
2010,02,20,03,11,-1.10
2010,02,20,03,12,-1.10
2010,02,20,03,13,-1.10
2010,02,20,03,14,-1.10
2010,02,20,03,15,-1.10
2010,02,20,03,16,-1.10
2010,02,20,03,17,-1.10
2010,02,20,03,18,-1.10
2010,02,20,03,19,-1.10
2010,02,20,03,20,-1.10
2010,02,20,03,21,-1.10
2010,02,20,03,22,-1.10
2010,02,20,03,23,-1.10
2010,02,20,03,24,-1.10
2010,02,20,03,25,-1.10
2010,02,20,03,26,-1.10
2010,02,20,03,27,-1.10
2010,02,20,03,28,-1.10
2010,02,20,03,29,-1.10
2010,02,20,03,30,-1.20
2010,02,20,03,31,-1.20
2010,02,20,03,32,-1.20
2010,02,20,03,33,-1.20
2010,02,20,03,34,-1.20
2010,02,20,03,35,-1.20
2010,02,20,03,36,-1.20
2010,02,20,03,37,-1.20
2010,02,20,03,38,-1.20
2010,02,20,03,39,-1.20
2010,02,20,03,40,-1.20
2010,02,20,03,41,-1.20
2010,02,20,03,42,-1.20
2010,02,20,03,43,-1.30
2010,02,20,03,44,-1.30
2010,02,20,03,45,-1.20
2010,02,20,03,46,-1.30
2010,02,20,03,47,-1.30
2010,02,20,03,48,-1.30
2010,02,20,03,49,-1.30
2010,02,20,03,50,-1.30
2010,02,20,03,51,-1.30
2010,02,20,03,52,-1.30
2010,02,20,03,53,-1.30
2010,02,20,03,54,-1.30
2010,02,20,03,55,-1.30
2010,02,20,03,56,-1.30
2010,02,20,03,57,-1.30
2010,02,20,03,58,-1.30
2010,02,20,03,59,-1.30
2010,02,20,04,00,-1.30
2010,02,20,04,01,-1.30
2010,02,20,04,02,-1.30
2010,02,20,04,03,-1.30
2010,02,20,04,04,-1.30
2010,02,20,04,05,-1.30
2010,02,20,04,06,-1.30
2010,02,20,04,07,-1.30
2010,02,20,04,08,-1.30
2010,02,20,04,09,-1.30
2010,02,20,04,10,-1.30
2010,02,20,04,11,-1.30
2010,02,20,04,12,-1.30
2010,02,20,04,13,-1.30
2010,02,20,04,14,-1.40
2010,02,20,04,15,-1.30
2010,02,20,04,16,-1.30
2010,02,20,04,17,-1.30
2010,02,20,04,18,-1.30
2010,02,20,04,19,-1.30
2010,02,20,04,20,-1.30
2010,02,20,04,21,-1.30
2010,02,20,04,22,-1.30
2010,02,20,04,23,-1.30
2010,02,20,04,24,-1.30
2010,02,20,04,25,-1.30
2010,02,20,04,26,-1.30
2010,02,20,04,27,-1.30
2010,02,20,04,28,-1.30
2010,02,20,04,29,-1.30
2010,02,20,04,30,-1.30
2010,02,20,04,31,-1.30
2010,02,20,04,32,-1.30
2010,02,20,04,33,-1.30
2010,02,20,04,34,-1.30
2010,02,20,04,35,-1.30
2010,02,20,04,36,-1.30
2010,02,20,04,37,-1.30
2010,02,20,04,38,-1.40
2010,02,20,04,39,-1.40
2010,02,20,04,40,-1.40
2010,02,20,04,41,-1.30
2010,02,20,04,42,-1.30
2010,02,20,04,43,-1.30
2010,02,20,04,44,-1.30
2010,02,20,04,45,-1.30
2010,02,20,04,46,-1.30
2010,02,20,04,47,-1.30
2010,02,20,04,48,-1.30
2010,02,20,04,49,-1.30
2010,02,20,04,50,-1.30
2010,02,20,04,51,-1.30
2010,02,20,04,52,-1.30
2010,02,20,04,53,-1.40
2010,02,20,04,54,-1.40
2010,02,20,04,55,-1.40
2010,02,20,04,56,-1.40
2010,02,20,04,57,-1.40
2010,02,20,04,58,-1.40
2010,02,20,04,59,-1.40
2010,02,20,05,00,-1.40
2010,02,20,05,01,-1.40
2010,02,20,05,02,-1.40
2010,02,20,05,03,-1.40
2010,02,20,05,04,-1.40
2010,02,20,05,05,-1.50
2010,02,20,05,06,-1.50
2010,02,20,05,07,-1.50
2010,02,20,05,08,-1.50
2010,02,20,05,09,-1.60
2010,02,20,05,10,-1.60
2010,02,20,05,11,-1.60
2010,02,20,05,12,-1.60
2010,02,20,05,13,-1.60
2010,02,20,05,14,-1.60
2010,02,20,05,15,-1.60
2010,02,20,05,16,-1.60
2010,02,20,05,17,-1.60
2010,02,20,05,18,-1.60
2010,02,20,05,19,-1.60
2010,02,20,05,20,-1.60
2010,02,20,05,21,-1.60
2010,02,20,05,22,-1.60
2010,02,20,05,23,-1.60
2010,02,20,05,24,-1.60
2010,02,20,05,25,-1.60
2010,02,20,05,26,-1.60
2010,02,20,05,27,-1.60
2010,02,20,05,28,-1.60
2010,02,20,05,29,-1.50
2010,02,20,05,30,-1.50
2010,02,20,05,31,-1.50
2010,02,20,05,32,-1.50
2010,02,20,05,33,-1.50
2010,02,20,05,34,-1.50
2010,02,20,05,35,-1.50
2010,02,20,05,36,-1.40
2010,02,20,05,37,-1.40
2010,02,20,05,38,-1.40
2010,02,20,05,39,-1.40
2010,02,20,05,40,-1.40
2010,02,20,05,41,-1.40
2010,02,20,05,42,-1.40
2010,02,20,05,43,-1.40
2010,02,20,05,44,-1.40
2010,02,20,05,45,-1.50
2010,02,20,05,46,-1.50
2010,02,20,05,47,-1.50
2010,02,20,05,48,-1.50
2010,02,20,05,49,-1.50
2010,02,20,05,50,-1.50
2010,02,20,05,51,-1.50
2010,02,20,05,52,-1.50
2010,02,20,05,53,-1.50
2010,02,20,05,54,-1.50
2010,02,20,05,55,-1.50
2010,02,20,05,56,-1.50
2010,02,20,05,57,-1.50
2010,02,20,05,58,-1.50
2010,02,20,05,59,-1.50
2010,02,20,06,00,-1.50
2010,02,20,06,01,-1.50
2010,02,20,06,02,-1.50
2010,02,20,06,03,-1.60
2010,02,20,06,04,-1.60
2010,02,20,06,05,-1.60
2010,02,20,06,06,-1.60
2010,02,20,06,07,-1.60
2010,02,20,06,08,-1.60
2010,02,20,06,09,-1.60
2010,02,20,06,10,-1.60
2010,02,20,06,11,-1.60
2010,02,20,06,12,-1.60
2010,02,20,06,13,-1.70
2010,02,20,06,14,-1.70
2010,02,20,06,15,-1.70
2010,02,20,06,16,-1.70
2010,02,20,06,17,-1.70
2010,02,20,06,18,-1.70
2010,02,20,06,19,-1.70
2010,02,20,06,20,-1.70
2010,02,20,06,21,-1.70
2010,02,20,06,22,-1.70
2010,02,20,06,23,-1.70
2010,02,20,06,24,-1.70
2010,02,20,06,25,-1.70
2010,02,20,06,26,-1.70
2010,02,20,06,27,-1.70
2010,02,20,06,28,-1.70
2010,02,20,06,29,-1.70
2010,02,20,06,30,-1.70
2010,02,20,06,31,-1.70
2010,02,20,06,32,-1.70
2010,02,20,06,33,-1.70
2010,02,20,06,34,-1.70
2010,02,20,06,35,-1.70
2010,02,20,06,36,-1.70
2010,02,20,06,37,-1.80
2010,02,20,06,38,-1.80
2010,02,20,06,39,-1.80
2010,02,20,06,40,-1.80
2010,02,20,06,41,-1.80
2010,02,20,06,42,-1.80
2010,02,20,06,43,-1.80
2010,02,20,06,44,-1.80
2010,02,20,06,45,-1.80
2010,02,20,06,46,-1.70
2010,02,20,06,47,-1.70
2010,02,20,06,48,-1.70
2010,02,20,06,49,-1.70
2010,02,20,06,50,-1.70
2010,02,20,06,51,-1.70
2010,02,20,06,52,-1.70
2010,02,20,06,53,-1.70
2010,02,20,06,54,-1.70
2010,02,20,06,55,-1.70
2010,02,20,06,56,-1.70
2010,02,20,06,57,-1.70
2010,02,20,06,58,-1.70
2010,02,20,06,59,-1.70
2010,02,20,07,00,-1.70
2010,02,20,07,01,-1.70
2010,02,20,07,02,-1.70
2010,02,20,07,03,-1.70
2010,02,20,07,04,-1.70
2010,02,20,07,05,-1.70
2010,02,20,07,06,-1.70
2010,02,20,07,07,-1.70
2010,02,20,07,08,-1.80
2010,02,20,07,09,-1.80
2010,02,20,07,10,-1.80
2010,02,20,07,11,-1.80
2010,02,20,07,12,-1.80
2010,02,20,07,13,-1.80
2010,02,20,07,14,-1.80
2010,02,20,07,15,-1.80
2010,02,20,07,16,-1.80
2010,02,20,07,17,-1.80
2010,02,20,07,18,-1.80
2010,02,20,07,19,-1.70
2010,02,20,07,20,-1.70
2010,02,20,07,21,-1.70
2010,02,20,07,22,-1.70
2010,02,20,07,23,-1.70
2010,02,20,07,24,-1.70
2010,02,20,07,25,-1.70
2010,02,20,07,26,-1.70
2010,02,20,07,27,-1.70
2010,02,20,07,28,-1.70
2010,02,20,07,29,-1.70
2010,02,20,07,30,-1.70
2010,02,20,07,31,-1.70
2010,02,20,07,32,-1.70
2010,02,20,07,33,-1.70
2010,02,20,07,34,-1.70
2010,02,20,07,35,-1.70
2010,02,20,07,36,-1.70
2010,02,20,07,37,-1.70
2010,02,20,07,38,-1.60
2010,02,20,07,39,-1.60
2010,02,20,07,40,-1.60
2010,02,20,07,41,-1.60
2010,02,20,07,42,-1.60
2010,02,20,07,43,-1.50
2010,02,20,07,44,-1.50
2010,02,20,07,45,-1.50
2010,02,20,07,46,-1.50
2010,02,20,07,47,-1.40
2010,02,20,07,48,-1.40
2010,02,20,07,49,-1.40
2010,02,20,07,50,-1.40
2010,02,20,07,51,-1.40
2010,02,20,07,52,-1.30
2010,02,20,07,53,-1.30
2010,02,20,07,54,-1.30
2010,02,20,07,55,-1.30
2010,02,20,07,56,-1.30
2010,02,20,07,57,-1.30
2010,02,20,07,58,-1.30
2010,02,20,07,59,-1.30
2010,02,20,08,00,-1.30
2010,02,20,08,01,-1.30
2010,02,20,08,02,-1.30
2010,02,20,08,03,-1.20
2010,02,20,08,04,-1.20
2010,02,20,08,05,-1.20
2010,02,20,08,06,-1.10
2010,02,20,08,07,-1.10
2010,02,20,08,08,-1.10
2010,02,20,08,09,-1.10
2010,02,20,08,10,-1.00
2010,02,20,08,11,-1.00
2010,02,20,08,12,-0.90
2010,02,20,08,13,-0.90
2010,02,20,08,14,-0.90
2010,02,20,08,15,-0.90
2010,02,20,08,16,-0.80
2010,02,20,08,17,-0.80
2010,02,20,08,18,-0.80
2010,02,20,08,19,-0.80
2010,02,20,08,20,-0.70
2010,02,20,08,21,-0.70
2010,02,20,08,22,-0.70
2010,02,20,08,23,-0.60
2010,02,20,08,24,-0.60
2010,02,20,08,25,-0.50
2010,02,20,08,26,-0.50
2010,02,20,08,27,-0.40
2010,02,20,08,28,-0.40
2010,02,20,08,29,-0.30
2010,02,20,08,30,-0.30
2010,02,20,08,31,-0.20
2010,02,20,08,32,-0.20
2010,02,20,08,33,-0.20
2010,02,20,08,34,-0.10
2010,02,20,08,35,-0.10
2010,02,20,08,36,0.00
2010,02,20,08,37,0.00
2010,02,20,08,38,0.10
2010,02,20,08,39,0.10
2010,02,20,08,40,0.20
2010,02,20,08,41,0.20
2010,02,20,08,42,0.30
2010,02,20,08,43,0.30
2010,02,20,08,44,0.30
2010,02,20,08,45,0.40
2010,02,20,08,46,0.40
2010,02,20,08,47,0.50
2010,02,20,08,48,0.50
2010,02,20,08,49,0.50
2010,02,20,08,50,0.60
2010,02,20,08,51,0.60
2010,02,20,08,52,0.70
2010,02,20,08,53,0.70
2010,02,20,08,54,0.80
2010,02,20,08,55,0.80
2010,02,20,08,56,0.80
2010,02,20,08,57,0.90
2010,02,20,08,58,1.00
2010,02,20,08,59,1.10
2010,02,20,09,00,1.20
2010,02,20,09,01,1.30
2010,02,20,09,02,1.30
2010,02,20,09,03,1.50
2010,02,20,09,04,1.70
2010,02,20,09,05,1.90
2010,02,20,09,06,2.00
2010,02,20,09,07,2.00
2010,02,20,09,08,2.10
2010,02,20,09,09,2.20
2010,02,20,09,10,2.20
2010,02,20,09,11,2.40
2010,02,20,09,12,2.50
2010,02,20,09,13,2.60
2010,02,20,09,14,2.70
2010,02,20,09,15,2.80
2010,02,20,09,16,2.80
2010,02,20,09,17,2.80
2010,02,20,09,18,2.70
2010,02,20,09,19,2.70
2010,02,20,09,20,2.60
2010,02,20,09,21,2.60
2010,02,20,09,22,2.50
2010,02,20,09,23,2.50
2010,02,20,09,24,2.50
2010,02,20,09,25,2.60
2010,02,20,09,26,2.70
2010,02,20,09,27,2.80
2010,02,20,09,28,2.90
2010,02,20,09,29,3.00
2010,02,20,09,30,3.10
2010,02,20,09,31,3.20
2010,02,20,09,32,3.30
2010,02,20,09,33,3.40
2010,02,20,09,34,3.40
2010,02,20,09,35,3.50
2010,02,20,09,36,3.70
2010,02,20,09,37,3.90
2010,02,20,09,38,4.20
2010,02,20,09,39,4.40
2010,02,20,09,40,4.60
2010,02,20,09,41,4.70
2010,02,20,09,42,4.90
2010,02,20,09,43,5.00
2010,02,20,09,44,5.10
2010,02,20,09,45,5.30
2010,02,20,09,46,5.50
2010,02,20,09,47,5.70
2010,02,20,09,48,5.80
2010,02,20,09,49,6.00
2010,02,20,09,50,6.10
2010,02,20,09,51,6.20
2010,02,20,09,52,6.40
2010,02,20,09,53,6.70
2010,02,20,09,54,6.90
2010,02,20,09,55,7.10
2010,02,20,09,56,7.30
2010,02,20,09,57,7.50
2010,02,20,09,58,7.70
2010,02,20,09,59,7.90
2010,02,20,10,00,8.00
2010,02,20,10,01,8.10
2010,02,20,10,02,8.10
2010,02,20,10,03,8.10
2010,02,20,10,04,8.00
2010,02,20,10,05,8.00
2010,02,20,10,06,7.90
2010,02,20,10,07,7.90
2010,02,20,10,08,7.80
2010,02,20,10,09,7.80
2010,02,20,10,10,7.80
2010,02,20,10,11,7.80
2010,02,20,10,12,7.80
2010,02,20,10,13,7.90
2010,02,20,10,14,7.90
2010,02,20,10,15,7.90
2010,02,20,10,16,7.90
2010,02,20,10,17,8.00
2010,02,20,10,18,8.00
2010,02,20,10,19,8.00
2010,02,20,10,20,8.10
2010,02,20,10,21,8.10
2010,02,20,10,22,8.20
2010,02,20,10,23,8.20
2010,02,20,10,24,8.10
2010,02,20,10,25,8.00
2010,02,20,10,26,8.00
2010,02,20,10,27,7.90
2010,02,20,10,28,7.90
2010,02,20,10,29,7.90
2010,02,20,10,30,8.00
2010,02,20,10,31,8.00
2010,02,20,10,32,8.10
2010,02,20,10,33,8.10
2010,02,20,10,34,8.10
2010,02,20,10,35,8.10
2010,02,20,10,36,8.20
2010,02,20,10,37,8.30
2010,02,20,10,38,8.50
2010,02,20,10,39,8.50
2010,02,20,10,40,8.60
2010,02,20,10,41,8.60
2010,02,20,10,42,8.60
2010,02,20,10,43,8.50
2010,02,20,10,44,8.40
2010,02,20,10,45,8.40
2010,02,20,10,46,8.40
2010,02,20,10,47,8.50
2010,02,20,10,48,8.50
2010,02,20,10,49,8.60
2010,02,20,10,50,8.60
2010,02,20,10,51,8.70
2010,02,20,10,52,8.70
2010,02,20,10,53,8.80
2010,02,20,10,54,8.80
2010,02,20,10,55,8.80
2010,02,20,10,56,8.80
2010,02,20,10,57,8.80
2010,02,20,10,58,8.80
2010,02,20,10,59,8.90
2010,02,20,11,00,9.00
2010,02,20,11,01,9.10
2010,02,20,11,02,9.20
2010,02,20,11,03,9.20
2010,02,20,11,04,9.20
2010,02,20,11,05,9.20
2010,02,20,11,06,9.20
2010,02,20,11,07,9.20
2010,02,20,11,08,9.20
2010,02,20,11,09,9.20
2010,02,20,11,10,9.20
2010,02,20,11,11,9.20
2010,02,20,11,12,9.20
2010,02,20,11,13,9.30
2010,02,20,11,14,9.40
2010,02,20,11,15,9.50
2010,02,20,11,16,9.50
2010,02,20,11,17,9.60
2010,02,20,11,18,9.60
2010,02,20,11,19,9.60
2010,02,20,11,20,9.70
2010,02,20,11,21,9.80
2010,02,20,11,22,9.90
2010,02,20,11,23,10.00
2010,02,20,11,24,10.10
2010,02,20,11,25,10.00
2010,02,20,11,26,10.00
2010,02,20,11,27,10.00
2010,02,20,11,28,10.00
2010,02,20,11,29,10.10
2010,02,20,11,30,10.10
2010,02,20,11,31,10.10
2010,02,20,11,32,10.00
2010,02,20,11,33,10.00
2010,02,20,11,34,10.00
2010,02,20,11,35,10.00
2010,02,20,11,36,10.00
2010,02,20,11,37,10.10
2010,02,20,11,38,10.20
2010,02,20,11,39,10.20
2010,02,20,11,40,10.20
2010,02,20,11,41,10.30
2010,02,20,11,42,10.40
2010,02,20,11,43,10.50
2010,02,20,11,44,10.60
2010,02,20,11,45,10.70
2010,02,20,11,46,10.70
2010,02,20,11,47,10.60
2010,02,20,11,48,10.60
2010,02,20,11,49,10.60
2010,02,20,11,50,10.60
2010,02,20,11,51,10.50
2010,02,20,11,52,10.40
2010,02,20,11,53,10.40
2010,02,20,11,54,10.30
2010,02,20,11,55,10.30
2010,02,20,11,56,10.20
2010,02,20,11,57,10.20
2010,02,20,11,58,10.30
2010,02,20,11,59,10.30
2010,02,20,12,00,10.40
2010,02,20,12,01,10.40
2010,02,20,12,02,10.30
2010,02,20,12,03,10.30
2010,02,20,12,04,10.40
2010,02,20,12,05,10.40
2010,02,20,12,06,10.40
2010,02,20,12,07,10.40
2010,02,20,12,08,10.40
2010,02,20,12,09,10.40
2010,02,20,12,10,10.30
2010,02,20,12,11,10.30
2010,02,20,12,12,10.30
2010,02,20,12,13,10.40
2010,02,20,12,14,10.40
2010,02,20,12,15,10.40
2010,02,20,12,16,10.30
2010,02,20,12,17,10.40
2010,02,20,12,18,10.40
2010,02,20,12,19,10.50
2010,02,20,12,20,10.50
2010,02,20,12,21,10.50
2010,02,20,12,22,10.50
2010,02,20,12,23,10.60
2010,02,20,12,24,10.60
2010,02,20,12,25,10.70
2010,02,20,12,26,10.80
2010,02,20,12,27,10.90
2010,02,20,12,28,11.10
2010,02,20,12,29,11.20
2010,02,20,12,30,11.30
2010,02,20,12,31,11.40
2010,02,20,12,32,11.40
2010,02,20,12,33,11.50
2010,02,20,12,34,11.60
2010,02,20,12,35,11.60
2010,02,20,12,36,11.60
2010,02,20,12,37,11.60
2010,02,20,12,38,11.60
2010,02,20,12,39,11.50
2010,02,20,12,40,11.50
2010,02,20,12,41,11.40
2010,02,20,12,42,11.40
2010,02,20,12,43,11.30
2010,02,20,12,44,11.20
2010,02,20,12,45,11.20
2010,02,20,12,46,11.20
2010,02,20,12,47,11.20
2010,02,20,12,48,11.20
2010,02,20,12,49,11.20
2010,02,20,12,50,11.20
2010,02,20,12,51,11.20
2010,02,20,12,52,11.20
2010,02,20,12,53,11.20
2010,02,20,12,54,11.30
2010,02,20,12,55,11.30
2010,02,20,12,56,11.30
2010,02,20,12,57,11.30
2010,02,20,12,58,11.30
2010,02,20,12,59,11.30
2010,02,20,13,00,11.30
2010,02,20,13,01,11.30
2010,02,20,13,02,11.20
2010,02,20,13,03,11.20
2010,02,20,13,04,11.20
2010,02,20,13,05,11.20
2010,02,20,13,06,11.20
2010,02,20,13,07,11.20
2010,02,20,13,08,11.20
2010,02,20,13,09,11.10
2010,02,20,13,10,11.10
2010,02,20,13,11,11.10
2010,02,20,13,12,11.10
2010,02,20,13,13,11.10
2010,02,20,13,14,11.10
2010,02,20,13,15,11.10
2010,02,20,13,16,11.20
2010,02,20,13,17,11.20
2010,02,20,13,18,11.30
2010,02,20,13,19,11.30
2010,02,20,13,20,11.30
2010,02,20,13,21,11.30
2010,02,20,13,22,11.30
2010,02,20,13,23,11.30
2010,02,20,13,24,11.30
2010,02,20,13,25,11.30
2010,02,20,13,26,11.40
2010,02,20,13,27,11.40
2010,02,20,13,28,11.40
2010,02,20,13,29,11.40
2010,02,20,13,30,11.40
2010,02,20,13,31,11.40
2010,02,20,13,32,11.40
2010,02,20,13,33,11.40
2010,02,20,13,34,11.40
2010,02,20,13,35,11.40
2010,02,20,13,36,11.40
2010,02,20,13,37,11.40
2010,02,20,13,38,11.40
2010,02,20,13,39,11.40
2010,02,20,13,40,11.40
2010,02,20,13,41,11.30
2010,02,20,13,42,11.40
2010,02,20,13,43,11.40
2010,02,20,13,44,11.50
2010,02,20,13,45,11.40
2010,02,20,13,46,11.40
2010,02,20,13,47,11.40
2010,02,20,13,48,11.40
2010,02,20,13,49,11.40
2010,02,20,13,50,11.40
2010,02,20,13,51,11.40
2010,02,20,13,52,11.40
2010,02,20,13,53,11.50
2010,02,20,13,54,11.60
2010,02,20,13,55,11.60
2010,02,20,13,56,11.60
2010,02,20,13,57,11.70
2010,02,20,13,58,11.70
2010,02,20,13,59,11.70
2010,02,20,14,00,11.70
2010,02,20,14,01,11.70
2010,02,20,14,02,11.60
2010,02,20,14,03,11.50
2010,02,20,14,04,11.40
2010,02,20,14,05,11.40
2010,02,20,14,06,11.40
2010,02,20,14,07,11.40
2010,02,20,14,08,11.40
2010,02,20,14,09,11.50
2010,02,20,14,10,11.50
2010,02,20,14,11,11.60
2010,02,20,14,12,11.50
2010,02,20,14,13,11.40
2010,02,20,14,14,11.40
2010,02,20,14,15,11.30
2010,02,20,14,16,11.30
2010,02,20,14,17,11.30
2010,02,20,14,18,11.30
2010,02,20,14,19,11.30
2010,02,20,14,20,11.30
2010,02,20,14,21,11.30
2010,02,20,14,22,11.40
2010,02,20,14,23,11.50
2010,02,20,14,24,11.50
2010,02,20,14,25,11.60
2010,02,20,14,26,11.60
2010,02,20,14,27,11.60
2010,02,20,14,28,11.60
2010,02,20,14,29,11.50
2010,02,20,14,30,11.50
2010,02,20,14,31,11.60
2010,02,20,14,32,11.50
2010,02,20,14,33,11.50
2010,02,20,14,34,11.40
2010,02,20,14,35,11.40
2010,02,20,14,36,11.50
2010,02,20,14,37,11.60
2010,02,20,14,38,11.60
2010,02,20,14,39,11.60
2010,02,20,14,40,11.70
2010,02,20,14,41,11.60
2010,02,20,14,42,11.60
2010,02,20,14,43,11.60
2010,02,20,14,44,11.60
2010,02,20,14,45,11.70
2010,02,20,14,46,11.70
2010,02,20,14,47,11.70
2010,02,20,14,48,11.70
2010,02,20,14,49,11.70
2010,02,20,14,50,11.70
2010,02,20,14,51,11.60
2010,02,20,14,52,11.60
2010,02,20,14,53,11.50
2010,02,20,14,54,11.40
2010,02,20,14,55,11.40
2010,02,20,14,56,11.40
2010,02,20,14,57,11.40
2010,02,20,14,58,11.40
2010,02,20,14,59,11.40
2010,02,20,15,00,11.50
2010,02,20,15,01,11.60
2010,02,20,15,02,11.60
2010,02,20,15,03,11.70
2010,02,20,15,04,11.70
2010,02,20,15,05,11.70
2010,02,20,15,06,11.70
2010,02,20,15,07,11.60
2010,02,20,15,08,11.60
2010,02,20,15,09,11.50
2010,02,20,15,10,11.40
2010,02,20,15,11,11.40
2010,02,20,15,12,11.40
2010,02,20,15,13,11.30
2010,02,20,15,14,11.30
2010,02,20,15,15,11.20
2010,02,20,15,16,11.20
2010,02,20,15,17,11.30
2010,02,20,15,18,11.30
2010,02,20,15,19,11.40
2010,02,20,15,20,11.30
2010,02,20,15,21,11.30
2010,02,20,15,22,11.20
2010,02,20,15,23,11.20
2010,02,20,15,24,11.20
2010,02,20,15,25,11.10
2010,02,20,15,26,11.10
2010,02,20,15,27,11.00
2010,02,20,15,28,11.00
2010,02,20,15,29,10.90
2010,02,20,15,30,10.90
2010,02,20,15,31,10.90
2010,02,20,15,32,10.90
2010,02,20,15,33,10.90
2010,02,20,15,34,10.90
2010,02,20,15,35,10.90
2010,02,20,15,36,10.90
2010,02,20,15,37,11.00
2010,02,20,15,38,11.00
2010,02,20,15,39,11.10
2010,02,20,15,40,11.00
2010,02,20,15,41,11.00
2010,02,20,15,42,11.00
2010,02,20,15,43,11.00
2010,02,20,15,44,11.00
2010,02,20,15,45,11.10
2010,02,20,15,46,11.10
2010,02,20,15,47,11.10
2010,02,20,15,48,11.10
2010,02,20,15,49,11.10
2010,02,20,15,50,11.10
2010,02,20,15,51,11.10
2010,02,20,15,52,11.10
2010,02,20,15,53,11.10
2010,02,20,15,54,11.10
2010,02,20,15,55,11.10
2010,02,20,15,56,11.10
2010,02,20,15,57,11.10
2010,02,20,15,58,11.00
2010,02,20,15,59,10.90
2010,02,20,16,00,10.90
2010,02,20,16,01,10.90
2010,02,20,16,02,10.80
2010,02,20,16,03,10.80
2010,02,20,16,04,10.80
2010,02,20,16,05,10.70
2010,02,20,16,06,10.70
2010,02,20,16,07,10.70
2010,02,20,16,08,10.70
2010,02,20,16,09,10.70
2010,02,20,16,10,10.60
2010,02,20,16,11,10.60
2010,02,20,16,12,10.60
2010,02,20,16,13,10.60
2010,02,20,16,14,10.60
2010,02,20,16,15,10.70
2010,02,20,16,16,10.70
2010,02,20,16,17,10.70
2010,02,20,16,18,10.70
2010,02,20,16,19,10.70
2010,02,20,16,20,10.60
2010,02,20,16,21,10.60
2010,02,20,16,22,10.60
2010,02,20,16,23,10.60
2010,02,20,16,24,10.60
2010,02,20,16,25,10.60
2010,02,20,16,26,10.60
2010,02,20,16,27,10.60
2010,02,20,16,28,10.60
2010,02,20,16,29,10.60
2010,02,20,16,30,10.60
2010,02,20,16,31,10.60
2010,02,20,16,32,10.60
2010,02,20,16,33,10.50
2010,02,20,16,34,10.50
2010,02,20,16,35,10.50
2010,02,20,16,36,10.50
2010,02,20,16,37,10.40
2010,02,20,16,38,10.40
2010,02,20,16,39,10.40
2010,02,20,16,40,10.30
2010,02,20,16,41,10.30
2010,02,20,16,42,10.30
2010,02,20,16,43,10.20
2010,02,20,16,44,10.20
2010,02,20,16,45,10.20
2010,02,20,16,46,10.20
2010,02,20,16,47,10.20
2010,02,20,16,48,10.20
2010,02,20,16,49,10.20
2010,02,20,16,50,10.20
2010,02,20,16,51,10.10
2010,02,20,16,52,10.00
2010,02,20,16,53,9.90
2010,02,20,16,54,9.70
2010,02,20,16,55,9.60
2010,02,20,16,56,9.50
2010,02,20,16,57,9.40
2010,02,20,16,58,9.30
2010,02,20,16,59,9.20
2010,02,20,17,00,9.10
2010,02,20,17,01,9.00
2010,02,20,17,02,9.00
2010,02,20,17,03,8.90
2010,02,20,17,04,8.80
2010,02,20,17,05,8.70
2010,02,20,17,06,8.60
2010,02,20,17,07,8.40
2010,02,20,17,08,8.30
2010,02,20,17,09,8.20
2010,02,20,17,10,8.20
2010,02,20,17,11,8.10
2010,02,20,17,12,8.00
2010,02,20,17,13,8.00
2010,02,20,17,14,7.90
2010,02,20,17,15,7.80
2010,02,20,17,16,7.80
2010,02,20,17,17,7.70
2010,02,20,17,18,7.60
2010,02,20,17,19,7.60
2010,02,20,17,20,7.60
2010,02,20,17,21,7.60
2010,02,20,17,22,7.60
2010,02,20,17,23,7.50
2010,02,20,17,24,7.50
2010,02,20,17,25,7.40
2010,02,20,17,26,7.40
2010,02,20,17,27,7.30
2010,02,20,17,28,7.20